"Pseudo-MPEC" for P11JCqk

Created 2023 Sep 27 1:22:11 UT using Find_Orb

Click here for an explanation of pseudo-MPECs

 
 Astrometry: 
     P11JCqk* C2023 09 15=7L0TWB^`W/S=Astrometry#=V0,'3Kd!DsZhy1y%M0\onw#Pw[HF51
     P11JCqk  C2023 09 15:7X!sEL]Gp0[8/l7o=-%SVN*\Q4Y2\M$oNQ:h;JywbbiTB8KOrX+F51
     P11JCqk  C2023 09 15FcgQwZ(vO0MCeredacted;;_5n6x1Y,clickSrW)D5hDx0OP0m0lF51
     P11JCqk  C2023 09 15i9#p6hfO#ZeUEEayqr\o.J9`Zh6k67Ym:**\p3:*hereyIPxeOo]F51
     P11JCqk  C2023 09 151dE[W,pyv;iQforRIxGS\)#pC-om7explanationGX@oQZ;gk!]jF51

Station data:
(F51) Pan-STARRS 1, Haleakala  (N20.707234 W156.255910)  US/Hawaii.
   Observers J. Bulger, T. Lowe, A. Schultz, M. Willman. Measurers K.
   Chambers, S. Chastel, T. de Boer, L. Denneau, J. Fairlamb, H. Flewelling,
   M. Huber, C.-C. Lin, E. Magnier, Y. Ramanjooloo, R. Wainscoat, R. Weryk.
   1.8-m Ritchey-Chrétien + CCD.

Orbital elements:  P11JCqk
   Perihelion 2023 Dec 9.63364 +/- 56.6 TT = 15:12:26 (JD 2460288.13364)
Epoch 2023 Sep 16.0 TT = JDT 2460203.5   Earth MOID: 0.3860   Ma: 0.0845
M 331.90456598 +/- 20               (J2000 ecliptic)             AutoNEOCP
n   0.33196533 +/- 0.246            Peri.  256.85099 +/- 55
a   2.06573319 +/- 1.02             Node   166.07183 +/- 3.9
e   0.4281721 +/- 0.255             Incl.   24.28094 +/- 12
P   2.97                   H 22.35  G  0.15   U 11.8  SR
q 1.18124369 +/- 0.314    Q 2.95022268 +/- 38.7
From 5 observations 2023 Sept. 15 (2.5 hr); mean residual 0".10
Residuals in arcseconds: 
230915 F51  .01+  .01-    230915 F51  .07+  .10-    230915 F51  .15+  .13+    
230915 F51  .07-  .11+    230915 F51  .15-  .11-    

Ephemerides (geocentric):
Date (UTC) HH   RA             Dec           delta  r     elong  mag " sig PA
---- --------  ------------   ------------  ------ ------ -----  --- --------
2023 09 27 01  00 24 10.064   -22 50 16.48  .41494 1.3911 155.7 22.1 179'   6
2023 09 27 02  00 24 10.801   -22 52 53.49  .41486 1.3909 155.6 22.1 181'   6
2023 09 27 03  00 24 11.538   -22 55 30.49  .41479 1.3907 155.5 22.1 182'   6
2023 09 27 04  00 24 12.275   -22 58 07.49  .41471 1.3905 155.5 22.1 184'   6
2023 09 27 05  00 24 13.013   -23 00 44.48  .41463 1.3903 155.4 22.1 185'   6
2023 09 27 06  00 24 13.750   -23 03 21.46  .41456 1.3901 155.4 22.1 187'   6
2023 09 27 07  00 24 14.488   -23 05 58.44  .41448 1.3899 155.3 22.1 189'   6
2023 09 27 08  00 24 15.226   -23 08 35.40  .41441 1.3897 155.3 22.1 190'   6
2023 09 27 09  00 24 15.965   -23 11 12.35  .41434 1.3895 155.2 22.1 192'   7
2023 09 27 10  00 24 16.703   -23 13 49.30  .41426 1.3893 155.2 22.1 193'   7
2023 09 27 11  00 24 17.442   -23 16 26.23  .41419 1.3891 155.1 22.1 195'   7
2023 09 27 12  00 24 18.181   -23 19 03.15  .41412 1.3889 155.0 22.1 197'   7
2023 09 27 13  00 24 18.921   -23 21 40.06  .41404 1.3887 155.0 22.1 198'   7
2023 09 27 14  00 24 19.661   -23 24 16.96  .41397 1.3885 154.9 22.1 200'   7
2023 09 27 15  00 24 20.401   -23 26 53.84  .41390 1.3883 154.9 22.1 202'   7
2023 09 27 16  00 24 21.141   -23 29 30.72  .41383 1.3881 154.8 22.1 203'   7
2023 09 27 17  00 24 21.881   -23 32 07.58  .41376 1.3879 154.8 22.1 205'   7
2023 09 27 18  00 24 22.622   -23 34 44.42  .41369 1.3877 154.7 22.1 207'   7
2023 09 27 19  00 24 23.363   -23 37 21.25  .41362 1.3874 154.6 22.1 209'   7
2023 09 27 20  00 24 24.105   -23 39 58.07  .41355 1.3872 154.6 22.1 210'   7
2023 09 27 21  00 24 24.847   -23 42 34.86  .41348 1.3870 154.5 22.1 212'   7
2023 09 27 22  00 24 25.589   -23 45 11.65  .41341 1.3868 154.5 22.1 214'   7
2023 09 27 23  00 24 26.331   -23 47 48.42  .41335 1.3866 154.4 22.1 216'   7
2023 09 28 00  00 24 27.074   -23 50 25.17  .41328 1.3864 154.4 22.1 218'   7
2023 09 28 01  00 24 27.817   -23 53 01.90  .41321 1.3862 154.3 22.1 219'   7
2023 09 28 02  00 24 28.561   -23 55 38.62  .41314 1.3860 154.3 22.1 221'   7
2023 09 28 03  00 24 29.305   -23 58 15.31  .41308 1.3858 154.2 22.1 223'   7
2023 09 28 04  00 24 30.049   -24 00 51.99  .41301 1.3856 154.1 22.1 225'   7
2023 09 28 05  00 24 30.793   -24 03 28.65  .41295 1.3854 154.1 22.1 227'   7
2023 09 28 06  00 24 31.538   -24 06 05.29  .41288 1.3852 154.0 22.1 228'   7
2023 09 28 07  00 24 32.283   -24 08 41.91  .41282 1.3850 154.0 22.1 230'   7
2023 09 28 08  00 24 33.029   -24 11 18.51  .41275 1.3848 153.9 22.1 232'   7
2023 09 28 09  00 24 33.775   -24 13 55.09  .41269 1.3846 153.9 22.1 234'   7
2023 09 28 10  00 24 34.522   -24 16 31.64  .41263 1.3844 153.8 22.1 236'   7
2023 09 28 11  00 24 35.268   -24 19 08.18  .41257 1.3842 153.7 22.1 238'   7
2023 09 28 12  00 24 36.016   -24 21 44.69  .41250 1.3840 153.7 22.1 240'   7
2023 09 28 13  00 24 36.763   -24 24 21.18  .41244 1.3838 153.6 22.1 242'   7
2023 09 28 14  00 24 37.511   -24 26 57.64  .41238 1.3836 153.6 22.1 244'   7
2023 09 28 15  00 24 38.260   -24 29 34.08  .41232 1.3834 153.5 22.1 246'   7
2023 09 28 16  00 24 39.009   -24 32 10.50  .41226 1.3832 153.5 22.1 248'   7
2023 09 28 17  00 24 39.758   -24 34 46.89  .41220 1.3830 153.4 22.1 250'   7
2023 09 28 18  00 24 40.508   -24 37 23.26  .41214 1.3828 153.3 22.1 252'   7
2023 09 28 19  00 24 41.258   -24 39 59.60  .41208 1.3826 153.3 22.1 254'   7
2023 09 28 20  00 24 42.009   -24 42 35.92  .41202 1.3824 153.2 22.1 256'   7
2023 09 28 21  00 24 42.760   -24 45 12.20  .41196 1.3822 153.2 22.1 258'   7
2023 09 28 22  00 24 43.511   -24 47 48.46  .41191 1.3820 153.1 22.1 260'   7
2023 09 28 23  00 24 44.263   -24 50 24.70  .41185 1.3818 153.0 22.1 262'   7
2023 09 29 00  00 24 45.016   -24 53 00.90  .41179 1.3816 153.0 22.1 264'   7